UPS707 GCXO-LPPD

Flight info

Callsign UPS707
Flight time 2h 25m
Altitude 36000
Route ARACO DCT NASOL DCT 30N018W/M081F360 31N019W DCT 3220N DCT 33N021W 34N022W 35N023W 36N024W DCT VSM
Aircraft B738/M-SDE2E3FGHIRWXY/LB1

Departure

Time 2026-05-08 23:48
Airport Tenerife Norte-Ciudad de La Laguna Airport (GCXO)

Arrival

Time 2026-05-09 02:13
Airport João Paulo II Airport (LPPD)
Time Latitude Longitude Altitude Speed Heading
2026-05-08 23:13 28.48756 -16.34886 2074 ft 0 kts 20°
2026-05-08 23:34 28.48740 -16.34892 2074 ft 4 kts 22°
2026-05-08 23:34 28.48715 -16.34904 2076 ft 4 kts 25°
2026-05-08 23:34 28.48691 -16.34918 2075 ft 4 kts 29°
2026-05-08 23:34 28.48668 -16.34934 2080 ft 4 kts 40°
2026-05-08 23:35 28.48652 -16.34956 2082 ft 4 kts 81°
2026-05-08 23:35 28.48651 -16.34966 2083 ft 1 kts 110°
2026-05-08 23:38 28.48651 -16.34964 2083 ft 1 kts 111°
2026-05-08 23:38 28.48649 -16.34960 2083 ft 1 kts 111°
2026-05-08 23:38 28.48647 -16.34952 2083 ft 1 kts 111°
2026-05-08 23:39 28.48642 -16.34938 2083 ft 2 kts 110°
2026-05-08 23:39 28.48636 -16.34921 2083 ft 2 kts 110°
2026-05-08 23:39 28.48629 -16.34898 2082 ft 4 kts 110°
2026-05-08 23:39 28.48617 -16.34862 2081 ft 6 kts 110°
2026-05-08 23:40 28.48602 -16.34814 2078 ft 8 kts 110°
2026-05-08 23:40 28.48582 -16.34752 2075 ft 9 kts 110°
2026-05-08 23:40 28.48556 -16.34677 2072 ft 11 kts 112°
2026-05-08 23:40 28.48526 -16.34591 2067 ft 13 kts 111°
2026-05-08 23:41 28.48494 -16.34490 2062 ft 15 kts 109°
2026-05-08 23:41 28.48458 -16.34379 2057 ft 15 kts 111°
2026-05-08 23:41 28.48419 -16.34267 2053 ft 15 kts 111°
2026-05-08 23:41 28.48383 -16.34155 2048 ft 15 kts 110°
2026-05-08 23:42 28.48345 -16.34039 2047 ft 16 kts 110°
2026-05-08 23:42 28.48308 -16.33926 2040 ft 15 kts 110°
2026-05-08 23:42 28.48272 -16.33816 2041 ft 14 kts 110°
2026-05-08 23:42 28.48238 -16.33711 2040 ft 14 kts 110°
2026-05-08 23:43 28.48206 -16.33614 2039 ft 13 kts 112°
2026-05-08 23:43 28.48173 -16.33522 2038 ft 12 kts 110°
2026-05-08 23:43 28.48144 -16.33432 2037 ft 12 kts 110°
2026-05-08 23:43 28.48116 -16.33343 2033 ft 12 kts 109°
2026-05-08 23:44 28.48088 -16.33257 2032 ft 12 kts 111°
2026-05-08 23:44 28.48057 -16.33171 2028 ft 12 kts 112°
2026-05-08 23:44 28.48025 -16.33080 2026 ft 13 kts 110°
2026-05-08 23:44 28.47994 -16.32985 2018 ft 13 kts 111°
2026-05-08 23:45 28.47962 -16.32890 2016 ft 13 kts 111°
2026-05-08 23:45 28.47932 -16.32797 2014 ft 12 kts 110°
2026-05-08 23:45 28.47901 -16.32707 2013 ft 12 kts 111°
2026-05-08 23:45 28.47870 -16.32617 2009 ft 13 kts 111°
2026-05-08 23:46 28.47813 -16.32543 2009 ft 12 kts 148°
2026-05-08 23:46 28.47746 -16.32574 2014 ft 12 kts 257°
2026-05-08 23:46 28.47769 -16.32663 2014 ft 12 kts 291°
2026-05-08 23:46 28.47795 -16.32736 2016 ft 8 kts 291°
2026-05-08 23:47 28.47815 -16.32796 2015 ft 8 kts 291°
2026-05-08 23:47 28.47896 -16.33040 2023 ft 68 kts 290°
2026-05-08 23:47 28.48140 -16.33775 2042 ft 129 kts 290°
2026-05-08 23:47 28.48523 -16.34894 2234 ft 162 kts 292°
2026-05-08 23:48 28.48948 -16.36022 3127 ft 159 kts 292°
2026-05-08 23:48 28.49379 -16.37229 3830 ft 163 kts 291°
2026-05-08 23:48 28.49806 -16.38456 4291 ft 181 kts 289°
2026-05-08 23:48 28.50260 -16.39886 4474 ft 200 kts 289°
2026-05-08 23:49 28.50785 -16.41437 4649 ft 219 kts 290°
2026-05-08 23:49 28.51352 -16.43091 4959 ft 229 kts 291°
2026-05-08 23:49 28.51933 -16.44783 5384 ft 228 kts 290°
2026-05-08 23:49 28.52509 -16.46461 5872 ft 229 kts 290°
2026-05-08 23:50 28.53090 -16.48155 6293 ft 231 kts 290°
2026-05-08 23:50 28.53677 -16.49872 6672 ft 235 kts 290°
2026-05-08 23:50 28.54266 -16.51602 6962 ft 234 kts 289°
2026-05-08 23:50 28.54429 -16.53415 6985 ft 234 kts 262°
2026-05-08 23:51 28.53858 -16.55165 6992 ft 241 kts 241°
2026-05-08 23:51 28.52699 -16.56559 7003 ft 244 kts 228°
2026-05-08 23:51 28.51650 -16.58051 6991 ft 240 kts 242°
2026-05-08 23:51 28.50936 -16.59755 6981 ft 239 kts 252°
2026-05-08 23:52 28.50472 -16.61537 6971 ft 239 kts 260°
2026-05-08 23:52 28.50245 -16.63428 6975 ft 248 kts 266°
2026-05-08 23:52 28.50099 -16.65429 6955 ft 258 kts 267°
2026-05-08 23:52 28.49963 -16.67463 6975 ft 258 kts 267°
2026-05-08 23:53 28.49825 -16.69495 6984 ft 257 kts 267°
2026-05-08 23:53 28.49684 -16.71520 6977 ft 257 kts 267°
2026-05-08 23:53 28.49541 -16.73537 6985 ft 256 kts 267°
2026-05-08 23:53 28.49396 -16.75553 6993 ft 256 kts 267°
2026-05-08 23:54 28.49250 -16.77571 6981 ft 256 kts 266°
2026-05-08 23:54 28.49102 -16.79592 6983 ft 257 kts 267°
2026-05-08 23:54 28.48953 -16.81614 6980 ft 257 kts 267°
2026-05-08 23:55 28.48631 -16.85691 7305 ft 263 kts 266°
2026-05-08 23:55 28.48449 -16.87750 8087 ft 261 kts 266°
2026-05-08 23:55 28.48268 -16.89795 8887 ft 260 kts 267°
2026-05-08 23:55 28.48086 -16.91845 9609 ft 262 kts 267°
2026-05-08 23:56 28.47965 -16.93213 10114 ft 263 kts 268°
2026-05-08 23:56 28.47781 -16.95321 10527 ft 278 kts 267°
2026-05-08 23:56 28.47584 -16.97590 10683 ft 300 kts 267°
2026-05-08 23:56 28.47298 -17.00855 10884 ft 326 kts 267°
2026-05-08 23:57 28.47066 -17.03495 11033 ft 344 kts 267°
2026-05-08 23:57 28.47230 -17.06223 11300 ft 351 kts 288°
2026-05-08 23:57 28.48397 -17.08659 11870 ft 353 kts 305°
2026-05-08 23:57 28.49473 -17.10105 12277 ft 356 kts 313°
2026-05-08 23:58 28.51351 -17.11970 12846 ft 361 kts 317°
2026-05-08 23:58 28.53313 -17.13783 13388 ft 365 kts 318°
2026-05-08 23:58 28.55301 -17.15598 13947 ft 368 kts 318°
2026-05-08 23:58 28.57298 -17.17435 14466 ft 371 kts 317°
2026-05-08 23:59 28.59304 -17.19297 15004 ft 373 kts 317°
2026-05-08 23:59 28.61289 -17.21156 15538 ft 376 kts 317°
2026-05-08 23:59 28.63309 -17.23059 16076 ft 378 kts 317°
2026-05-08 23:59 28.65339 -17.24978 16599 ft 381 kts 317°
2026-05-09 00:00 28.67386 -17.26917 17111 ft 384 kts 316°
2026-05-09 00:00 28.69446 -17.28871 17592 ft 387 kts 316°
2026-05-09 00:00 28.71523 -17.30842 18149 ft 389 kts 316°
2026-05-09 00:00 28.73610 -17.32822 18616 ft 392 kts 316°
2026-05-09 00:01 28.75707 -17.34814 19057 ft 393 kts 316°
2026-05-09 00:01 28.77813 -17.36814 19499 ft 395 kts 316°
2026-05-09 00:01 28.79927 -17.38823 19958 ft 396 kts 316°
2026-05-09 00:01 28.82053 -17.40844 20376 ft 399 kts 316°
2026-05-09 00:02 28.84316 -17.42716 20744 ft 406 kts 323°
2026-05-09 00:02 28.86855 -17.44199 21174 ft 413 kts 331°
2026-05-09 00:02 28.89509 -17.45476 21608 ft 415 kts 332°
2026-05-09 00:02 28.92180 -17.46753 22011 ft 417 kts 332°
2026-05-09 00:03 28.94860 -17.48039 22401 ft 419 kts 331°
2026-05-09 00:03 28.97553 -17.49340 22844 ft 421 kts 331°
2026-05-09 00:03 29.00252 -17.50650 23252 ft 422 kts 331°
2026-05-09 00:03 29.02958 -17.51969 23616 ft 424 kts 331°
2026-05-09 00:04 29.05680 -17.53301 23913 ft 426 kts 331°
2026-05-09 00:04 29.08408 -17.54638 24226 ft 428 kts 330°
2026-05-09 00:04 29.11148 -17.55982 24539 ft 429 kts 330°
2026-05-09 00:04 29.13891 -17.57329 24844 ft 430 kts 330°
2026-05-09 00:05 29.16647 -17.58682 25148 ft 431 kts 330°
2026-05-09 00:05 29.19408 -17.60039 25436 ft 433 kts 330°
2026-05-09 00:05 29.22179 -17.61402 25763 ft 434 kts 329°
2026-05-09 00:05 29.24952 -17.62765 26119 ft 433 kts 329°
2026-05-09 00:06 29.27722 -17.64129 26397 ft 435 kts 329°
2026-05-09 00:06 29.30507 -17.65501 26636 ft 437 kts 329°
2026-05-09 00:06 29.33266 -17.66862 26872 ft 438 kts 329°
2026-05-09 00:06 29.36106 -17.68263 27129 ft 439 kts 329°
2026-05-09 00:07 29.38877 -17.69629 27433 ft 439 kts 328°
2026-05-09 00:07 29.41676 -17.71009 27821 ft 437 kts 328°
2026-05-09 00:07 29.44457 -17.72380 28248 ft 434 kts 328°
2026-05-09 00:07 29.47224 -17.73746 28671 ft 432 kts 328°
2026-05-09 00:08 29.49979 -17.75108 29042 ft 430 kts 327°
2026-05-09 00:08 29.52723 -17.76466 29426 ft 429 kts 327°
2026-05-09 00:08 29.55458 -17.77821 29843 ft 427 kts 327°
2026-05-09 00:08 29.58176 -17.79167 30252 ft 425 kts 327°
2026-05-09 00:09 29.60885 -17.80510 30600 ft 423 kts 327°
2026-05-09 00:09 29.63580 -17.81847 30940 ft 422 kts 327°
2026-05-09 00:09 29.66269 -17.83182 31285 ft 420 kts 326°
2026-05-09 00:09 29.68942 -17.84510 31641 ft 418 kts 326°
2026-05-09 00:10 29.71606 -17.85833 31977 ft 416 kts 326°
2026-05-09 00:10 29.74260 -17.87153 32413 ft 413 kts 326°
2026-05-09 00:10 29.76882 -17.88456 32871 ft 409 kts 326°
2026-05-09 00:10 29.79487 -17.89752 33225 ft 407 kts 326°
2026-05-09 00:11 29.82082 -17.91047 33488 ft 407 kts 326°
2026-05-09 00:11 29.84680 -17.92344 33760 ft 406 kts 326°
2026-05-09 00:11 29.87268 -17.93636 34091 ft 404 kts 326°
2026-05-09 00:11 29.89843 -17.94921 34391 ft 402 kts 325°
2026-05-09 00:12 29.92407 -17.96202 34624 ft 402 kts 325°
2026-05-09 00:12 29.94974 -17.97485 34825 ft 402 kts 325°
2026-05-09 00:12 29.97536 -17.98769 35051 ft 401 kts 324°
2026-05-09 00:12 29.99968 -18.00255 35298 ft 391 kts 318°
2026-05-09 00:13 30.02163 -18.02049 35448 ft 382 kts 311°
2026-05-09 00:13 30.04171 -18.04051 35565 ft 382 kts 310°
2026-05-09 00:13 30.06186 -18.06065 35681 ft 383 kts 310°
2026-05-09 00:13 30.08205 -18.08075 35845 ft 383 kts 311°
2026-05-09 00:14 30.10219 -18.10075 36013 ft 382 kts 311°
2026-05-09 00:14 30.14271 -18.14094 36049 ft 385 kts 311°
2026-05-09 00:15 30.18333 -18.18119 36060 ft 384 kts 311°
2026-05-09 00:15 30.22383 -18.22133 36063 ft 383 kts 311°
2026-05-09 00:16 30.26427 -18.26148 36065 ft 383 kts 311°
2026-05-09 00:16 30.30435 -18.30130 36058 ft 382 kts 311°
2026-05-09 00:17 30.34458 -18.34134 36057 ft 381 kts 311°
2026-05-09 00:17 30.38475 -18.38135 36057 ft 381 kts 311°
2026-05-09 00:18 30.42487 -18.42136 36052 ft 380 kts 311°
2026-05-09 00:18 30.46496 -18.46139 36100 ft 380 kts 311°
2026-05-09 00:19 30.50510 -18.50152 36067 ft 381 kts 311°
2026-05-09 00:19 30.54524 -18.54169 36057 ft 381 kts 311°
2026-05-09 00:20 30.58537 -18.58189 36055 ft 381 kts 311°
2026-05-09 00:20 30.62547 -18.62211 36051 ft 381 kts 311°
2026-05-09 00:21 30.66559 -18.66238 36050 ft 381 kts 311°
2026-05-09 00:21 30.70573 -18.70273 36090 ft 382 kts 311°
2026-05-09 00:22 30.74594 -18.74321 36068 ft 383 kts 311°
2026-05-09 00:22 30.78632 -18.78390 36296 ft 383 kts 311°
2026-05-09 00:22 30.80633 -18.80403 36637 ft 378 kts 311°
2026-05-09 00:23 30.82608 -18.82393 36972 ft 374 kts 311°
2026-05-09 00:23 30.84567 -18.84369 37252 ft 372 kts 311°
2026-05-09 00:23 30.86514 -18.86338 37459 ft 371 kts 311°
2026-05-09 00:23 30.88462 -18.88309 37617 ft 371 kts 311°
2026-05-09 00:24 30.90411 -18.90283 37796 ft 371 kts 311°
2026-05-09 00:24 30.92356 -18.92251 38012 ft 369 kts 310°
2026-05-09 00:24 30.94299 -18.94220 38042 ft 372 kts 311°
2026-05-09 00:25 30.98219 -18.98193 38040 ft 374 kts 311°
2026-05-09 00:25 31.02147 -19.02142 38044 ft 372 kts 311°
2026-05-09 00:26 31.06101 -19.06034 38046 ft 372 kts 311°
2026-05-09 00:26 31.10049 -19.09920 38040 ft 371 kts 311°
2026-05-09 00:27 31.13982 -19.13803 38044 ft 370 kts 311°
2026-05-09 00:27 31.17906 -19.17686 38045 ft 371 kts 312°
2026-05-09 00:28 31.21811 -19.21558 38039 ft 371 kts 311°
2026-05-09 00:28 31.25755 -19.25473 38042 ft 373 kts 311°
2026-05-09 00:29 31.29742 -19.29435 38046 ft 375 kts 312°
2026-05-09 00:29 31.33723 -19.33395 38044 ft 376 kts 312°
2026-05-09 00:30 31.37716 -19.37371 38038 ft 377 kts 312°
2026-05-09 00:30 31.41726 -19.41369 38050 ft 380 kts 312°
2026-05-09 00:31 31.45735 -19.45370 38041 ft 382 kts 312°
2026-05-09 00:31 31.49774 -19.49404 38028 ft 382 kts 312°
2026-05-09 00:32 31.53813 -19.53445 38041 ft 382 kts 312°
2026-05-09 00:32 31.57851 -19.57489 38045 ft 382 kts 312°
2026-05-09 00:33 31.61888 -19.61537 38078 ft 382 kts 312°
2026-05-09 00:33 31.65938 -19.65605 38042 ft 384 kts 312°
2026-05-09 00:34 31.69998 -19.69686 38043 ft 384 kts 312°
2026-05-09 00:34 31.74057 -19.73770 38035 ft 384 kts 312°
2026-05-09 00:35 31.78115 -19.77859 38035 ft 384 kts 312°
2026-05-09 00:35 31.82170 -19.81950 38033 ft 384 kts 312°
2026-05-09 00:36 31.86216 -19.86036 38034 ft 383 kts 312°
2026-05-09 00:36 31.90259 -19.90125 38038 ft 383 kts 312°
2026-05-09 00:37 31.94294 -19.94212 38037 ft 383 kts 312°
2026-05-09 00:37 31.98327 -19.98300 38038 ft 382 kts 312°
2026-05-09 00:38 32.02375 -20.02370 38035 ft 383 kts 313°
2026-05-09 00:38 32.06465 -20.06394 38064 ft 384 kts 313°
2026-05-09 00:39 32.10570 -20.10433 38042 ft 385 kts 313°
2026-05-09 00:39 32.14677 -20.14487 38013 ft 385 kts 313°
2026-05-09 00:40 32.18779 -20.18545 38030 ft 385 kts 313°
2026-05-09 00:40 32.22883 -20.22613 38042 ft 385 kts 313°
2026-05-09 00:41 32.29036 -20.28721 38053 ft 386 kts 313°
2026-05-09 00:41 32.33149 -20.32811 38043 ft 387 kts 313°
2026-05-09 00:42 32.37267 -20.36910 38033 ft 387 kts 313°
2026-05-09 00:42 32.40692 -20.40323 38043 ft 387 kts 313°
2026-05-09 00:43 32.44810 -20.44432 38031 ft 387 kts 313°
2026-05-09 00:43 32.48928 -20.48546 38023 ft 387 kts 313°
2026-05-09 00:44 32.53048 -20.52667 38043 ft 388 kts 313°
2026-05-09 00:44 32.57171 -20.56796 38036 ft 388 kts 313°
2026-05-09 00:45 32.61296 -20.60932 38033 ft 388 kts 313°
2026-05-09 00:45 32.65420 -20.65072 38032 ft 388 kts 313°
2026-05-09 00:46 32.69541 -20.69215 38032 ft 388 kts 313°
2026-05-09 00:46 32.73663 -20.73364 38042 ft 389 kts 314°
2026-05-09 00:47 32.77789 -20.77522 38035 ft 389 kts 314°
2026-05-09 00:47 32.81913 -20.81682 38001 ft 389 kts 313°
2026-05-09 00:48 32.86001 -20.85813 38022 ft 388 kts 313°
2026-05-09 00:48 32.90113 -20.89973 38036 ft 388 kts 313°
2026-05-09 00:49 32.94228 -20.94143 38070 ft 389 kts 314°
2026-05-09 00:49 32.98356 -20.98328 38038 ft 390 kts 314°
2026-05-09 00:50 33.02499 -21.02493 38034 ft 390 kts 314°
2026-05-09 00:50 33.06687 -21.06611 38035 ft 390 kts 314°
2026-05-09 00:51 33.10875 -21.10728 38029 ft 390 kts 314°
2026-05-09 00:51 33.15057 -21.14855 38052 ft 390 kts 314°
2026-05-09 00:52 33.19239 -21.18993 38031 ft 391 kts 314°
2026-05-09 00:52 33.23427 -21.23143 38035 ft 391 kts 314°
2026-05-09 00:53 33.27610 -21.27294 38034 ft 391 kts 314°
2026-05-09 00:53 33.31795 -21.31452 38033 ft 391 kts 314°
2026-05-09 00:54 33.35976 -21.35612 38061 ft 391 kts 315°
2026-05-09 00:54 33.40168 -21.39789 38041 ft 392 kts 315°
2026-05-09 00:55 33.44358 -21.43968 38031 ft 392 kts 314°
2026-05-09 00:55 33.48544 -21.48149 38010 ft 392 kts 314°
2026-05-09 00:56 33.52727 -21.52332 38023 ft 392 kts 314°
2026-05-09 00:56 33.56909 -21.56521 38062 ft 392 kts 315°
2026-05-09 00:57 33.61094 -21.60718 38041 ft 392 kts 315°
2026-05-09 00:57 33.65284 -21.64925 38029 ft 393 kts 315°
2026-05-09 00:58 33.69446 -21.69109 38032 ft 393 kts 314°
2026-05-09 00:58 33.73632 -21.73322 38034 ft 393 kts 314°
2026-05-09 00:59 33.77819 -21.77543 38072 ft 393 kts 315°
2026-05-09 00:59 33.81332 -21.81089 38023 ft 393 kts 315°
2026-05-09 01:00 33.86198 -21.86006 38028 ft 393 kts 315°
2026-05-09 01:00 33.90381 -21.90240 38033 ft 393 kts 315°
2026-05-09 01:01 33.94566 -21.94482 38024 ft 393 kts 314°
2026-05-09 01:01 33.98750 -21.98727 38025 ft 393 kts 314°
2026-05-09 01:02 34.02955 -22.02945 38021 ft 394 kts 315°
2026-05-09 01:02 34.07205 -22.07119 38028 ft 394 kts 315°
2026-05-09 01:03 34.11457 -22.11298 38027 ft 394 kts 315°
2026-05-09 01:03 34.15700 -22.15484 38027 ft 394 kts 315°
2026-05-09 01:04 34.19940 -22.19679 38034 ft 395 kts 315°
2026-05-09 01:04 34.24183 -22.23884 38030 ft 394 kts 315°
2026-05-09 01:05 34.28421 -22.28089 38026 ft 394 kts 315°
2026-05-09 01:06 34.34775 -22.34405 38027 ft 394 kts 315°
2026-05-09 01:06 34.39004 -22.38617 38066 ft 394 kts 315°
2026-05-09 01:07 34.43238 -22.42838 38038 ft 394 kts 315°
2026-05-09 01:07 34.47469 -22.47062 38016 ft 394 kts 315°
2026-05-09 01:08 34.51694 -22.51286 38017 ft 394 kts 315°
2026-05-09 01:08 34.55918 -22.55515 38031 ft 394 kts 315°
2026-05-09 01:09 34.60143 -22.59750 38039 ft 394 kts 315°
2026-05-09 01:09 34.64344 -22.63968 38026 ft 395 kts 315°
2026-05-09 01:10 34.68575 -22.68221 38033 ft 394 kts 315°
2026-05-09 01:10 34.72802 -22.72476 38029 ft 394 kts 315°
2026-05-09 01:11 34.77026 -22.76734 38024 ft 394 kts 315°
2026-05-09 01:11 34.81249 -22.80997 38027 ft 395 kts 315°
2026-05-09 01:12 34.85477 -22.85271 38025 ft 395 kts 315°
2026-05-09 01:12 34.89700 -22.89546 38028 ft 395 kts 315°
2026-05-09 01:13 34.93923 -22.93827 38029 ft 395 kts 315°
2026-05-09 01:13 34.98149 -22.98116 38070 ft 395 kts 315°
2026-05-09 01:14 35.02392 -23.02388 38039 ft 396 kts 316°
2026-05-09 01:14 35.06683 -23.06605 38023 ft 396 kts 316°
2026-05-09 01:15 35.10971 -23.10814 37994 ft 395 kts 316°
2026-05-09 01:15 35.15246 -23.15029 38018 ft 395 kts 316°
2026-05-09 01:16 35.19521 -23.19256 38047 ft 396 kts 316°
2026-05-09 01:16 35.23802 -23.23497 38032 ft 396 kts 316°
2026-05-09 01:17 35.30220 -23.29866 38029 ft 396 kts 316°
2026-05-09 01:17 35.34499 -23.34120 38029 ft 396 kts 316°
2026-05-09 01:18 35.38774 -23.38375 38044 ft 396 kts 316°
2026-05-09 01:18 35.43050 -23.42638 38037 ft 396 kts 316°
2026-05-09 01:19 35.47324 -23.46905 38029 ft 396 kts 316°
2026-05-09 01:19 35.51567 -23.51146 38044 ft 396 kts 316°
2026-05-09 01:20 35.55842 -23.55427 38036 ft 396 kts 316°
2026-05-09 01:20 35.60115 -23.59710 38043 ft 397 kts 316°
2026-05-09 01:21 35.64391 -23.64005 38033 ft 397 kts 316°
2026-05-09 01:21 35.68663 -23.68299 38036 ft 397 kts 316°
2026-05-09 01:22 35.72932 -23.72597 38036 ft 396 kts 316°
2026-05-09 01:22 35.77199 -23.76900 38046 ft 396 kts 316°
2026-05-09 01:23 35.81467 -23.81209 38040 ft 397 kts 316°
2026-05-09 01:23 35.85733 -23.85523 38036 ft 397 kts 316°
2026-05-09 01:24 35.89996 -23.89841 38037 ft 397 kts 316°
2026-05-09 01:24 35.94260 -23.94166 38038 ft 397 kts 316°
2026-05-09 01:25 35.98526 -23.98498 38037 ft 397 kts 316°
2026-05-09 01:25 36.02627 -24.03023 38047 ft 394 kts 312°
2026-05-09 01:26 36.06567 -24.07745 38018 ft 394 kts 311°
2026-05-09 01:26 36.10497 -24.12474 38036 ft 395 kts 312°
2026-05-09 01:27 36.14442 -24.17205 38049 ft 395 kts 312°
2026-05-09 01:27 36.18394 -24.21937 38045 ft 395 kts 312°
2026-05-09 01:28 36.22347 -24.26674 38056 ft 395 kts 312°
2026-05-09 01:28 36.26299 -24.31415 38052 ft 395 kts 312°
2026-05-09 01:29 36.30245 -24.36156 38046 ft 395 kts 312°
2026-05-09 01:29 36.34207 -24.40925 37603 ft 402 kts 312°
2026-05-09 01:30 36.35529 -24.42518 37324 ft 398 kts 312°
2026-05-09 01:30 36.37505 -24.44897 36747 ft 394 kts 312°
2026-05-09 01:30 36.39465 -24.47259 36152 ft 393 kts 311°
2026-05-09 01:30 36.41424 -24.49624 35497 ft 393 kts 311°
2026-05-09 01:31 36.43383 -24.51992 34840 ft 393 kts 311°
2026-05-09 01:31 36.45346 -24.54366 34171 ft 394 kts 311°
2026-05-09 01:31 36.47313 -24.56746 33401 ft 395 kts 311°
2026-05-09 01:31 36.49280 -24.59129 32686 ft 395 kts 311°
2026-05-09 01:32 36.51250 -24.61515 31927 ft 395 kts 312°
2026-05-09 01:32 36.53214 -24.63897 31175 ft 395 kts 312°
2026-05-09 01:32 36.55181 -24.66284 30410 ft 395 kts 312°
2026-05-09 01:32 36.57150 -24.68675 29529 ft 395 kts 313°
2026-05-09 01:33 36.59114 -24.71062 28619 ft 395 kts 313°
2026-05-09 01:33 36.61076 -24.73447 27772 ft 394 kts 313°
2026-05-09 01:33 36.63033 -24.75830 26885 ft 394 kts 313°
2026-05-09 01:33 36.64992 -24.78216 25985 ft 395 kts 313°
2026-05-09 01:34 36.66941 -24.80590 25396 ft 389 kts 313°
2026-05-09 01:34 36.68864 -24.82935 24720 ft 385 kts 314°
2026-05-09 01:34 36.70768 -24.85259 24069 ft 381 kts 314°
2026-05-09 01:34 36.72651 -24.87560 23389 ft 378 kts 314°
2026-05-09 01:35 36.74518 -24.89842 22678 ft 373 kts 314°
2026-05-09 01:35 36.76358 -24.92094 22039 ft 368 kts 314°
2026-05-09 01:35 36.78176 -24.94319 21413 ft 364 kts 314°
2026-05-09 01:35 36.79970 -24.96517 20791 ft 359 kts 314°
2026-05-09 01:36 36.81723 -24.98666 20180 ft 346 kts 314°
2026-05-09 01:36 36.83407 -25.00732 19589 ft 334 kts 314°
2026-05-09 01:36 36.85042 -25.02739 19018 ft 324 kts 315°
2026-05-09 01:36 36.86628 -25.04688 18464 ft 316 kts 315°
2026-05-09 01:37 36.88176 -25.06591 17872 ft 308 kts 315°
2026-05-09 01:37 36.89688 -25.08453 17336 ft 304 kts 315°
2026-05-09 01:37 36.91197 -25.10310 16787 ft 305 kts 315°
2026-05-09 01:37 36.92709 -25.12171 16253 ft 306 kts 315°
2026-05-09 01:38 36.94229 -25.14043 15698 ft 307 kts 315°
2026-05-09 01:38 36.95764 -25.15901 15167 ft 308 kts 318°
2026-05-09 01:38 36.97480 -25.17518 14512 ft 313 kts 327°
2026-05-09 01:38 36.99360 -25.18912 13923 ft 315 kts 328°
2026-05-09 01:39 37.01260 -25.20291 13313 ft 316 kts 328°
2026-05-09 01:39 37.03157 -25.21666 12777 ft 314 kts 328°
2026-05-09 01:39 37.05041 -25.23036 12245 ft 312 kts 328°
2026-05-09 01:39 37.06911 -25.24400 11710 ft 311 kts 329°
2026-05-09 01:40 37.08774 -25.25764 11265 ft 307 kts 329°
2026-05-09 01:40 37.10571 -25.27083 11131 ft 294 kts 329°
2026-05-09 01:40 37.12301 -25.28353 11011 ft 283 kts 329°
2026-05-09 01:40 37.13944 -25.29562 10880 ft 264 kts 329°
2026-05-09 01:41 37.15478 -25.30691 10779 ft 247 kts 329°
2026-05-09 01:41 37.16909 -25.31745 10684 ft 231 kts 329°
2026-05-09 01:41 37.18245 -25.32730 10591 ft 215 kts 329°
2026-05-09 01:41 37.19497 -25.33654 10508 ft 204 kts 329°
2026-05-09 01:42 37.20705 -25.34546 10451 ft 201 kts 329°
2026-05-09 01:42 37.21921 -25.35445 10382 ft 205 kts 329°
2026-05-09 01:42 37.23158 -25.36360 10307 ft 208 kts 329°
2026-05-09 01:42 37.24415 -25.37289 10218 ft 211 kts 329°
2026-05-09 01:43 37.25683 -25.38227 10117 ft 211 kts 329°
2026-05-09 01:43 37.26953 -25.39166 9908 ft 212 kts 329°
2026-05-09 01:43 37.28215 -25.40100 9678 ft 210 kts 329°
2026-05-09 01:43 37.29467 -25.41027 9419 ft 208 kts 329°
2026-05-09 01:44 37.30705 -25.41944 9193 ft 205 kts 329°
2026-05-09 01:44 37.31928 -25.42850 8952 ft 204 kts 329°
2026-05-09 01:44 37.33147 -25.43753 8714 ft 203 kts 329°
2026-05-09 01:44 37.34361 -25.44653 8485 ft 202 kts 329°
2026-05-09 01:45 37.35570 -25.45551 8254 ft 202 kts 329°
2026-05-09 01:45 37.36781 -25.46449 8030 ft 202 kts 329°
2026-05-09 01:45 37.37991 -25.47347 7804 ft 202 kts 329°
2026-05-09 01:45 37.39204 -25.48248 7580 ft 203 kts 329°
2026-05-09 01:46 37.40420 -25.49151 7349 ft 203 kts 330°
2026-05-09 01:46 37.41641 -25.50057 7119 ft 204 kts 330°
2026-05-09 01:46 37.42866 -25.50968 6872 ft 205 kts 329°
2026-05-09 01:46 37.44077 -25.51870 6641 ft 205 kts 329°
2026-05-09 01:47 37.45305 -25.52784 6404 ft 205 kts 329°
2026-05-09 01:47 37.46533 -25.53698 6149 ft 205 kts 330°
2026-05-09 01:47 37.47755 -25.54608 5911 ft 203 kts 330°
2026-05-09 01:47 37.48973 -25.55515 5646 ft 204 kts 330°
2026-05-09 01:48 37.50242 -25.56281 5387 ft 203 kts 349°
2026-05-09 01:48 37.51646 -25.56231 5176 ft 203 kts
2026-05-09 01:48 37.52982 -25.55640 4950 ft 204 kts 18°
2026-05-09 01:48 37.54288 -25.54969 4709 ft 202 kts 17°
2026-05-09 01:49 37.55582 -25.54313 4485 ft 199 kts 17°
2026-05-09 01:49 37.56849 -25.53672 4286 ft 193 kts 17°
2026-05-09 01:49 37.58067 -25.53054 4059 ft 185 kts 17°
2026-05-09 01:49 37.59233 -25.52465 3863 ft 176 kts 17°
2026-05-09 01:50 37.60326 -25.51913 3798 ft 167 kts 16°
2026-05-09 01:50 37.61399 -25.51373 3708 ft 165 kts 15°
2026-05-09 01:50 37.62454 -25.50843 3628 ft 162 kts 15°
2026-05-09 01:50 37.63494 -25.50320 3557 ft 160 kts 16°
2026-05-09 01:51 37.64515 -25.49807 3475 ft 156 kts 16°
2026-05-09 01:51 37.65510 -25.49305 3435 ft 154 kts 15°
2026-05-09 01:51 37.66520 -25.49032 3337 ft 146 kts 350°
2026-05-09 01:51 37.67444 -25.49488 3286 ft 145 kts 327°
2026-05-09 01:52 37.68039 -25.50523 3091 ft 148 kts 300°
2026-05-09 01:52 37.68418 -25.51662 2946 ft 137 kts 301°
2026-05-09 01:52 37.68785 -25.52759 2769 ft 133 kts 301°
2026-05-09 01:52 37.69134 -25.53824 2585 ft 129 kts 301°
2026-05-09 01:53 37.69473 -25.54864 2445 ft 129 kts 301°
2026-05-09 01:53 37.69812 -25.55912 2283 ft 128 kts 302°
2026-05-09 01:53 37.70149 -25.56960 2171 ft 129 kts 301°
2026-05-09 01:53 37.70469 -25.57991 2033 ft 124 kts 300°
2026-05-09 01:54 37.70747 -25.59020 1816 ft 122 kts 299°
2026-05-09 01:54 37.71039 -25.60015 1626 ft 121 kts 301°
2026-05-09 01:54 37.71392 -25.61021 1474 ft 128 kts 301°
2026-05-09 01:54 37.71732 -25.62065 1380 ft 129 kts 298°
2026-05-09 01:55 37.72012 -25.63132 1191 ft 123 kts 299°
2026-05-09 01:55 37.72300 -25.64146 987 ft 122 kts 303°
2026-05-09 01:55 37.72668 -25.65154 781 ft 130 kts 305°
2026-05-09 01:55 37.73026 -25.66160 620 ft 124 kts 303°
2026-05-09 01:56 37.73355 -25.67169 465 ft 124 kts 304°
2026-05-09 01:56 37.73667 -25.68132 315 ft 117 kts 306°
2026-05-09 01:56 37.73971 -25.69049 236 ft 111 kts 296°
2026-05-09 01:56 37.74287 -25.70137 613 ft 155 kts 300°
2026-05-09 01:57 37.74791 -25.71503 1292 ft 183 kts 301°
2026-05-09 01:57 37.75329 -25.72858 2441 ft 164 kts 303°
2026-05-09 01:57 37.75814 -25.74092 3385 ft 152 kts 303°
2026-05-09 01:57 37.76267 -25.75286 4335 ft 148 kts 304°
2026-05-09 01:58 37.76680 -25.76440 5322 ft 143 kts 298°
2026-05-09 01:58 37.76633 -25.77732 6163 ft 161 kts 254°
2026-05-09 01:58 37.75783 -25.78748 6902 ft 184 kts 209°
2026-05-09 01:58 37.74471 -25.78968 7581 ft 196 kts 181°
2026-05-09 01:59 37.73113 -25.78710 8316 ft 202 kts 156°
2026-05-09 01:59 37.71771 -25.77755 8452 ft 243 kts 144°
2026-05-09 01:59 37.70488 -25.76364 9106 ft 235 kts 132°
2026-05-09 01:59 37.69379 -25.74958 9100 ft 223 kts 131°
2026-05-09 02:00 37.68278 -25.73519 8835 ft 232 kts 132°
2026-05-09 02:00 37.67182 -25.72049 8954 ft 226 kts 129°
2026-05-09 02:00 37.66108 -25.70518 8752 ft 247 kts 127°
2026-05-09 02:00 37.65064 -25.68802 9093 ft 244 kts 118°
2026-05-09 02:01 37.64230 -25.66918 9393 ft 245 kts 111°
2026-05-09 02:01 37.63477 -25.65044 9071 ft 241 kts 112°
2026-05-09 02:01 37.62672 -25.63177 8677 ft 239 kts 116°
2026-05-09 02:01 37.61827 -25.61429 8447 ft 230 kts 116°
2026-05-09 02:02 37.61075 -25.59623 7848 ft 237 kts 110°
2026-05-09 02:02 37.60357 -25.57715 7247 ft 244 kts 110°
2026-05-09 02:02 37.59622 -25.55766 6636 ft 249 kts 110°
2026-05-09 02:02 37.58876 -25.53782 6016 ft 252 kts 110°
2026-05-09 02:03 37.58138 -25.51770 5362 ft 254 kts 110°
2026-05-09 02:03 37.57405 -25.49746 4725 ft 253 kts 105°
2026-05-09 02:03 37.57124 -25.47620 4071 ft 243 kts 83°
2026-05-09 02:03 37.57162 -25.45498 3445 ft 242 kts 81°
2026-05-09 02:04 37.57393 -25.43442 2782 ft 232 kts 62°
2026-05-09 02:04 37.58327 -25.41908 2145 ft 217 kts 30°
2026-05-09 02:04 37.59588 -25.40999 1853 ft 200 kts 22°
2026-05-09 02:04 37.60761 -25.40219 1716 ft 182 kts 22°
2026-05-09 02:05 37.61822 -25.39497 1675 ft 168 kts 22°
2026-05-09 02:05 37.62893 -25.39028 1664 ft 160 kts 355°
2026-05-09 02:05 37.63958 -25.39278 1656 ft 156 kts 336°
2026-05-09 02:05 37.64883 -25.39976 1665 ft 159 kts 321°
2026-05-09 02:06 37.65433 -25.41195 1679 ft 161 kts 295°
2026-05-09 02:06 37.65771 -25.42508 1682 ft 157 kts 294°
2026-05-09 02:06 37.66092 -25.43810 1695 ft 153 kts 294°
2026-05-09 02:07 37.66647 -25.46215 1659 ft 135 kts 294°
2026-05-09 02:07 37.66903 -25.47352 1669 ft 135 kts 294°
2026-05-09 02:07 37.67159 -25.48480 1686 ft 136 kts 294°
2026-05-09 02:07 37.67418 -25.49631 1674 ft 137 kts 294°
2026-05-09 02:08 37.67658 -25.50798 1693 ft 137 kts 294°
2026-05-09 02:08 37.67977 -25.51894 1673 ft 130 kts 305°
2026-05-09 02:08 37.68341 -25.52937 1684 ft 129 kts 303°
2026-05-09 02:08 37.68722 -25.53961 1674 ft 128 kts 303°
2026-05-09 02:09 37.69117 -25.54978 1674 ft 129 kts 305°
2026-05-09 02:09 37.69501 -25.56006 1663 ft 130 kts 304°
2026-05-09 02:09 37.69887 -25.57040 1686 ft 130 kts 304°
2026-05-09 02:09 37.70265 -25.58081 1667 ft 131 kts 304°
2026-05-09 02:10 37.70648 -25.59121 1669 ft 131 kts 304°
2026-05-09 02:10 37.71016 -25.60159 1647 ft 126 kts 302°
2026-05-09 02:10 37.71349 -25.61198 1476 ft 128 kts 300°
2026-05-09 02:10 37.71673 -25.62229 1199 ft 130 kts 300°
2026-05-09 02:11 37.72013 -25.63310 1036 ft 135 kts 297°
2026-05-09 02:11 37.72392 -25.64387 951 ft 131 kts 302°
2026-05-09 02:11 37.72766 -25.65432 786 ft 129 kts 302°
2026-05-09 02:11 37.73120 -25.66463 555 ft 130 kts 303°
2026-05-09 02:12 37.73474 -25.67524 384 ft 132 kts 298°
2026-05-09 02:12 37.73823 -25.68583 251 ft 128 kts 297°
2026-05-09 02:12 37.74126 -25.69531 220 ft 98 kts 291°
2026-05-09 02:12 37.74322 -25.70152 242 ft 54 kts 292°
2026-05-09 02:13 37.74394 -25.70385 254 ft 24 kts 291°
2026-05-09 02:13 37.74456 -25.70577 260 ft 23 kts 293°
2026-05-09 02:13 37.74515 -25.70761 267 ft 22 kts 292°
2026-05-09 02:13 37.74570 -25.70939 270 ft 21 kts 291°
2026-05-09 02:14 37.74595 -25.71034 273 ft 8 kts 288°
2026-05-09 02:14 37.74600 -25.71063 271 ft 3 kts 302°
2026-05-09 02:14 37.74620 -25.71059 273 ft 3 kts 23°
2026-05-09 02:14 37.74623 -25.71056 273 ft 1 kts 34°
2026-05-09 02:15 37.74621 -25.71040 271 ft 5 kts 103°
2026-05-09 02:15 37.74596 -25.70977 271 ft 12 kts 117°
2026-05-09 02:15 37.74551 -25.70882 269 ft 13 kts 112°
2026-05-09 02:15 37.74520 -25.70775 267 ft 13 kts 109°
2026-05-09 02:16 37.74484 -25.70659 263 ft 16 kts 114°
2026-05-09 02:16 37.74435 -25.70510 259 ft 20 kts 111°
2026-05-09 02:16 37.74382 -25.70342 252 ft 22 kts 112°
2026-05-09 02:16 37.74322 -25.70229 245 ft 15 kts 170°
2026-05-09 02:17 37.74241 -25.70234 247 ft 9 kts 133°
2026-05-09 02:17 37.74216 -25.70154 244 ft 11 kts 115°
2026-05-09 02:17 37.74182 -25.70096 242 ft 3 kts 211°
2026-05-09 02:17 37.74172 -25.70123 242 ft 3 kts 248°
2026-05-09 02:18 37.74161 -25.70161 244 ft 6 kts 250°
2026-05-09 02:18 37.74181 -25.70194 245 ft 2 kts
2026-05-09 02:18 37.74185 -25.70191 245 ft 0 kts 25°
2026-05-09 02:19 37.74161 -25.70162 244 ft 0 kts 79°
2026-05-09 02:36 37.74161 -25.70163 244 ft 1 kts 79°
2026-05-09 02:37 37.74156 -25.70192 245 ft 4 kts 79°
2026-05-09 02:37 37.74151 -25.70225 245 ft 4 kts 79°
2026-05-09 02:37 37.74147 -25.70252 246 ft 0 kts 79°
2026-05-09 02:37 37.74154 -25.70216 245 ft 9 kts 84°
2026-05-09 02:38 37.74179 -25.70199 245 ft 7 kts 36°
2026-05-09 02:38 37.74211 -25.70166 245 ft 10 kts
2026-05-09 02:38 37.74237 -25.70228 247 ft 10 kts 290°
2026-05-09 02:38 37.74275 -25.70245 247 ft 10 kts 15°
2026-05-09 02:39 37.74355 -25.70232 245 ft 15 kts 341°
2026-05-09 02:39 37.74423 -25.70295 252 ft 15 kts 321°
2026-05-09 02:39 37.74487 -25.70356 258 ft 15 kts 322°
2026-05-09 02:39 37.74566 -25.70436 266 ft 6 kts 316°
2026-05-09 02:40 37.74616 -25.70523 270 ft 10 kts 294°
2026-05-09 02:40 37.74648 -25.70621 270 ft 15 kts 291°
2026-05-09 02:40 37.74688 -25.70747 270 ft 15 kts 291°
2026-05-09 02:40 37.74717 -25.70842 270 ft 15 kts 292°
2026-05-09 02:41 37.74750 -25.70944 270 ft 5 kts 292°
2026-05-09 02:41 37.74787 -25.71061 270 ft 15 kts 292°
2026-05-09 02:41 37.74818 -25.71137 270 ft 9 kts 342°
2026-05-09 02:41 37.74856 -25.71127 270 ft 7 kts 22°
2026-05-09 02:42 37.74879 -25.71115 270 ft 0 kts 22°